| time (UTC) | temp C | wind direction | speed KPH | gust KPH | rain 1hr cm | rain 24hr cm | rain mn cm | humidity % | barometer mb |
| 20260506165403 | 13 | 95 | 0.0 | 1.6 | 0.00 | 0.00 | 0.00 | 58 | 1013.0 |
| 20260506165103 | 13 | 94 | 0.0 | 1.6 | 0.00 | 0.00 | 0.00 | 58 | 1013.1 |
| 20260506164803 | 13 | 91 | 0.0 | 1.6 | 0.00 | 0.00 | 0.00 | 58 | 1013.1 |
| 20260506164503 | 13 | 91 | 0.0 | 1.6 | 0.00 | 0.00 | 0.00 | 57 | 1013.1 |
| 20260506164203 | 13 | 90 | 0.0 | 1.6 | 0.00 | 0.00 | 0.00 | 57 | 1013.1 |
| 20260506163903 | 13 | 90 | 0.0 | 1.6 | 0.00 | 0.00 | 0.00 | 58 | 1013.0 |
| 20260506163603 | 13 | 90 | 0.0 | 1.6 | 0.00 | 0.00 | 0.00 | 57 | 1013.1 |
| 20260506163303 | 13 | 90 | 0.0 | 1.6 | 0.00 | 0.00 | 0.00 | 58 | 1013.1 |
| 20260506163003 | 13 | 90 | 0.0 | 1.6 | 0.00 | 0.00 | 0.00 | 58 | 1013.1 |
| 20260506162703 | 13 | 90 | 0.0 | 1.6 | 0.00 | 0.00 | 0.00 | 57 | 1013.0 |
| 20260506162403 | 13 | 91 | 0.0 | 1.6 | 0.00 | 0.00 | 0.00 | 55 | 1013.0 |
| 20260506162103 | 13 | 85 | 0.0 | 1.6 | 0.00 | 0.00 | 0.00 | 56 | 1013.0 |
| 20260506161803 | 14 | 74 | 0.0 | 1.6 | 0.00 | 0.00 | 0.00 | 56 | 1013.1 |
| 20260506161503 | 14 | 4 | 0.0 | 1.6 | 0.00 | 0.00 | 0.00 | 55 | 1013.1 |
| 20260506161203 | 14 | 4 | 0.0 | 1.6 | 0.00 | 0.00 | 0.00 | 53 | 1013.1 |
| 20260506160904 | 14 | 4 | 0.0 | 1.6 | 0.00 | 0.00 | 0.00 | 54 | 1013.1 |
| 20260506160603 | 15 | 3 | 0.0 | 1.6 | 0.00 | 0.00 | 0.00 | 54 | 1013.0 |
| 20260506160303 | 15 | 10 | 0.0 | 3.2 | 0.00 | 0.00 | 0.00 | 55 | 1013.0 |
| 20260506160003 | 15 | 10 | 0.0 | 3.2 | 0.00 | 0.00 | 0.00 | 57 | 1013.1 |
| 20260506155703 | 15 | 18 | 0.0 | 3.2 | 0.00 | 0.00 | 0.00 | 55 | 1013.1 |
| 20260506155403 | 15 | 40 | 0.0 | 3.2 | 0.00 | 0.00 | 0.00 | 55 | 1013.1 |
| 20260506155103 | 15 | 76 | 0.0 | 1.6 | 0.00 | 0.00 | 0.00 | 56 | 1013.1 |
| 20260506154804 | 15 | 87 | 0.0 | 1.6 | 0.00 | 0.00 | 0.00 | 54 | 1013.1 |
| 20260506154503 | 15 | 99 | 0.0 | 1.6 | 0.00 | 0.00 | 0.00 | 54 | 1013.1 |
| 20260506154203 | 14 | 99 | 0.0 | 1.6 | 0.00 | 0.00 | 0.00 | 56 | 1013.1 |
| 20260506153903 | 14 | 99 | 0.0 | 1.6 | 0.00 | 0.00 | 0.00 | 56 | 1013.1 |
| 20260506153603 | 14 | 99 | 0.0 | 1.6 | 0.00 | 0.00 | 0.00 | 56 | 1013.1 |
| 20260506153514 | 14 | 99 | 0.0 | 1.6 | 0.00 | 0.00 | 0.00 | 56 | 1013.1 |
| 20260506153003 | 14 | 120 | 0.0 | 4.8 | 0.00 | 0.00 | 0.00 | 62 | 1013.1 |
| 20260506152703 | 13 | 121 | 0.0 | 4.8 | 0.00 | 0.00 | 0.00 | 61 | 1013.1 |
| 20260506152403 | 13 | 117 | 0.0 | 4.8 | 0.00 | 0.00 | 0.00 | 56 | 1013.2 |
| 20260506152313 | 13 | 113 | 0.0 | 4.8 | 0.00 | 0.00 | 0.00 | 57 | 1013.2 |
| 20260506152013 | 13 | 32 | 0.0 | 1.6 | 0.00 | 0.00 | 0.00 | 59 | 1013.2 |
| 20260506151503 | 13 | 360 | 0.0 | 1.6 | 0.00 | 0.00 | 0.00 | 57 | 1013.2 |
| 20260506151203 | 13 | 52 | 0.0 | 4.8 | 0.00 | 0.00 | 0.00 | 56 | 1013.2 |
| 20260506150903 | 14 | 58 | 0.0 | 4.8 | 0.00 | 0.00 | 0.00 | 54 | 1013.2 |
| 20260506150814 | 14 | 60 | 0.0 | 4.8 | 0.00 | 0.00 | 0.00 | 56 | 1013.2 |
| 20260506150304 | 14 | 59 | 0.0 | 3.2 | 0.00 | 0.00 | 0.00 | 57 | 1013.2 |
| 20260506150003 | 14 | 67 | 0.0 | 4.8 | 0.00 | 0.00 | 0.00 | 55 | 1013.4 |
| 20260506145703 | 14 | 71 | 0.0 | 4.8 | 0.00 | 0.00 | 0.00 | 58 | 1013.4 |
| 20260506145403 | 15 | 76 | 0.0 | 4.8 | 0.00 | 0.00 | 0.00 | 55 | 1013.3 |
| 20260506145105 | 14 | 76 | 0.0 | 4.8 | 0.00 | 0.00 | 0.00 | 55 | 1013.3 |
| 20260506144803 | 14 | 97 | 0.0 | 1.6 | 0.00 | 0.00 | 0.00 | 61 | 1013.4 |
| 20260506144503 | 13 | 99 | 0.0 | 1.6 | 0.00 | 0.00 | 0.00 | 57 | 1013.4 |
| 20260506144204 | 13 | 85 | 0.0 | 1.6 | 0.00 | 0.00 | 0.00 | 54 | 1013.4 |
| 20260506143903 | 13 | 70 | 0.0 | 1.6 | 0.00 | 0.00 | 0.00 | 55 | 1013.3 |
| 20260506143603 | 13 | 66 | 0.0 | 1.6 | 0.00 | 0.00 | 0.00 | 55 | 1013.4 |
| 20260506143513 | 13 | 65 | 0.0 | 1.6 | 0.00 | 0.00 | 0.00 | 55 | 1013.5 |
| 20260506143213 | 13 | 63 | 0.0 | 4.8 | 0.00 | 0.00 | 0.00 | 57 | 1013.4 |
| 20260506142703 | 13 | 79 | 0.0 | 4.8 | 0.00 | 0.00 | 0.00 | 57 | 1013.4 |
| 20260506142403 | 14 | 81 | 0.0 | 4.8 | 0.00 | 0.00 | 0.00 | 54 | 1013.4 |
| 20260506142103 | 14 | 86 | 0.0 | 3.2 | 0.00 | 0.00 | 0.00 | 55 | 1013.5 |
| 20260506141803 | 15 | 85 | 1.6 | 4.8 | 0.00 | 0.00 | 0.00 | 57 | 1013.5 |
| 20260506141503 | 15 | 91 | 0.0 | 4.8 | 0.00 | 0.00 | 0.00 | 56 | 1013.5 |
| 20260506141203 | 15 | 103 | 0.0 | 4.8 | 0.00 | 0.00 | 0.00 | 56 | 1013.5 |
| 20260506140903 | 15 | 98 | 0.0 | 3.2 | 0.00 | 0.00 | 0.00 | 56 | 1013.6 |
| 20260506140604 | 14 | 89 | 1.6 | 3.2 | 0.00 | 0.00 | 0.00 | 56 | 1013.5 |
| 20260506140303 | 14 | 89 | 1.6 | 3.2 | 0.00 | 0.00 | 0.00 | 57 | 1013.6 |
| 20260506140003 | 14 | 91 | 1.6 | 3.2 | 0.00 | 0.00 | 0.00 | 55 | 1013.6 |
| 20260506135703 | 14 | 96 | 1.6 | 3.2 | 0.00 | 0.00 | 0.00 | 60 | 1013.5 |
| 20260506135403 | 14 | 90 | 0.0 | 4.8 | 0.00 | 0.00 | 0.00 | 57 | 1013.6 |
| 20260506135103 | 14 | 83 | 0.0 | 4.8 | 0.00 | 0.00 | 0.00 | 57 | 1013.7 |
| 20260506135012 | 14 | 81 | 0.0 | 4.8 | 0.00 | 0.00 | 0.00 | 58 | 1013.7 |
| 20260506134503 | 13 | 74 | 0.0 | 4.8 | 0.00 | 0.00 | 0.00 | 57 | 1013.7 |
| 20260506134203 | 13 | 80 | 0.0 | 3.2 | 0.00 | 0.00 | 0.00 | 57 | 1013.7 |
| 20260506133903 | 13 | 80 | 0.0 | 4.8 | 0.00 | 0.00 | 0.00 | 58 | 1013.7 |
| 20260506133603 | 13 | 79 | 0.0 | 4.8 | 0.00 | 0.00 | 0.00 | 58 | 1013.8 |
| 20260506133303 | 13 | 70 | 0.0 | 4.8 | 0.00 | 0.00 | 0.00 | 59 | 1013.8 |
| 20260506133003 | 13 | 67 | 0.0 | 4.8 | 0.00 | 0.00 | 0.00 | 59 | 1013.9 |
| 20260506132703 | 13 | 75 | 0.0 | 3.2 | 0.00 | 0.00 | 0.00 | 58 | 1013.8 |
| 20260506132403 | 13 | 78 | 0.0 | 6.4 | 0.00 | 0.00 | 0.00 | 57 | 1013.9 |
| 20260506132103 | 14 | 70 | 1.6 | 9.7 | 0.00 | 0.00 | 0.00 | 58 | 1013.9 |
| 20260506131803 | 14 | 79 | 1.6 | 9.7 | 0.00 | 0.00 | 0.00 | 58 | 1013.9 |
| 20260506131503 | 14 | 86 | 1.6 | 9.7 | 0.00 | 0.00 | 0.00 | 58 | 1013.9 |
| 20260506131203 | 14 | 94 | 1.6 | 9.7 | 0.00 | 0.00 | 0.00 | 59 | 1013.9 |
| 20260506130905 | 14 | 91 | 1.6 | 9.7 | 0.00 | 0.00 | 0.00 | 57 | 1013.9 |
| 20260506130603 | 13 | 85 | 3.2 | 9.7 | 0.00 | 0.00 | 0.00 | 60 | 1013.8 |
| 20260506130303 | 13 | 84 | 1.6 | 8.0 | 0.00 | 0.00 | 0.00 | 60 | 1013.9 |
| 20260506130004 | 13 | 83 | 3.2 | 8.0 | 0.00 | 0.00 | 0.00 | 58 | 1013.9 |
| 20260506125703 | 13 | 83 | 1.6 | 8.0 | 0.00 | 0.00 | 0.00 | 56 | 1013.9 |
| 20260506125404 | 13 | 82 | 1.6 | 4.8 | 0.00 | 0.00 | 0.00 | 58 | 1014.0 |
| 20260506125103 | 13 | 81 | 3.2 | 8.0 | 0.00 | 0.00 | 0.00 | 56 | 1014.0 |
| 20260506124803 | 13 | 81 | 3.2 | 8.0 | 0.00 | 0.00 | 0.00 | 57 | 1013.9 |
| 20260506124503 | 13 | 84 | 3.2 | 8.0 | 0.00 | 0.00 | 0.00 | 60 | 1013.9 |
| 20260506124203 | 13 | 85 | 1.6 | 8.0 | 0.00 | 0.00 | 0.00 | 57 | 1013.9 |
| 20260506123903 | 13 | 85 | 1.6 | 4.8 | 0.00 | 0.00 | 0.00 | 61 | 1014.1 |
| 20260506123603 | 13 | 83 | 1.6 | 6.4 | 0.00 | 0.00 | 0.00 | 63 | 1013.9 |
| 20260506123303 | 13 | 81 | 3.2 | 6.4 | 0.00 | 0.00 | 0.00 | 59 | 1014.0 |
| 20260506123003 | 13 | 82 | 1.6 | 8.0 | 0.00 | 0.00 | 0.00 | 58 | 1013.9 |
| 20260506122703 | 13 | 82 | 1.6 | 8.0 | 0.00 | 0.00 | 0.00 | 58 | 1013.9 |
| 20260506122403 | 13 | 83 | 1.6 | 8.0 | 0.00 | 0.00 | 0.00 | 61 | 1014.0 |
| 20260506122103 | 13 | 81 | 1.6 | 9.7 | 0.00 | 0.00 | 0.00 | 60 | 1013.9 |
| 20260506121804 | 13 | 81 | 1.6 | 9.7 | 0.00 | 0.00 | 0.00 | 59 | 1013.9 |
| 20260506121503 | 13 | 79 | 1.6 | 9.7 | 0.00 | 0.00 | 0.00 | 58 | 1014.0 |
| 20260506121203 | 13 | 74 | 1.6 | 8.0 | 0.00 | 0.00 | 0.00 | 59 | 1014.1 |
| 20260506120903 | 13 | 82 | 1.6 | 9.7 | 0.00 | 0.00 | 0.00 | 60 | 1014.0 |
| 20260506120604 | 13 | 96 | 1.6 | 9.7 | 0.00 | 0.00 | 0.00 | 59 | 1014.1 |
| 20260506120303 | 13 | 108 | 1.6 | 9.7 | 0.00 | 0.00 | 0.00 | 57 | 1014.1 |
| 20260506120003 | 13 | 119 | 1.6 | 6.4 | 0.00 | 0.00 | 0.00 | 60 | 1014.1 |
| 20260506115703 | 13 | 106 | 1.6 | 3.2 | 0.00 | 0.00 | 0.00 | 58 | 1014.1 |
| 20260506115614 | 13 | 101 | 1.6 | 3.2 | 0.00 | 0.00 | 0.00 | 59 | 1014.2 |
| 20260506115103 | 13 | 89 | 1.6 | 3.2 | 0.00 | 0.00 | 0.00 | 61 | 1014.2 |
| 20260506114803 | 13 | 91 | 1.6 | 6.4 | 0.00 | 0.00 | 0.00 | 61 | 1014.2 |
| 20260506114503 | 13 | 91 | 1.6 | 6.4 | 0.00 | 0.00 | 0.00 | 64 | 1014.3 |
| 20260506114203 | 13 | 91 | 1.6 | 6.4 | 0.00 | 0.00 | 0.00 | 62 | 1014.2 |
| 20260506113903 | 13 | 94 | 1.6 | 3.2 | 0.00 | 0.00 | 0.00 | 60 | 1014.3 |
| 20260506113603 | 13 | 88 | 1.6 | 3.2 | 0.00 | 0.00 | 0.00 | 61 | 1014.2 |
| 20260506113512 | 13 | 90 | 1.6 | 3.2 | 0.00 | 0.00 | 0.00 | 63 | 1014.2 |
| 20260506113003 | 13 | 85 | 1.6 | 3.2 | 0.00 | 0.00 | 0.00 | 62 | 1014.4 |
| 20260506112703 | 13 | 84 | 1.6 | 9.7 | 0.00 | 0.00 | 0.00 | 62 | 1014.3 |
| 20260506112614 | 13 | 85 | 1.6 | 9.7 | 0.00 | 0.00 | 0.00 | 63 | 1014.4 |
| 20260506112313 | 13 | 86 | 1.6 | 9.7 | 0.00 | 0.00 | 0.00 | 62 | 1014.3 |
| 20260506112013 | 13 | 85 | 1.6 | 9.7 | 0.00 | 0.00 | 0.00 | 60 | 1014.3 |
| 20260506111503 | 13 | 86 | 1.6 | 4.8 | 0.00 | 0.00 | 0.00 | 62 | 1014.4 |
| 20260506111203 | 13 | 91 | 1.6 | 4.8 | 0.00 | 0.00 | 0.00 | 64 | 1014.4 |
| 20260506110904 | 13 | 92 | 1.6 | 4.8 | 0.00 | 0.00 | 0.00 | 63 | 1014.4 |
| 20260506110603 | 13 | 89 | 1.6 | 4.8 | 0.00 | 0.00 | 0.00 | 62 | 1014.3 |
| 20260506110303 | 13 | 88 | 1.6 | 4.8 | 0.00 | 0.00 | 0.00 | 61 | 1014.4 |
| 20260506110214 | 13 | 89 | 1.6 | 3.2 | 0.00 | 0.00 | 0.00 | 63 | 1014.3 |
| 20260506105703 | 13 | 94 | 1.6 | 3.2 | 0.00 | 0.00 | 0.00 | 62 | 1014.3 |
| 20260506105405 | 13 | 95 | 1.6 | 3.2 | 0.00 | 0.00 | 0.00 | 58 | 1014.5 |
| 20260506105103 | 13 | 94 | 1.6 | 3.2 | 0.00 | 0.00 | 0.00 | 59 | 1014.4 |
| 20260506104803 | 14 | 96 | 1.6 | 3.2 | 0.00 | 0.00 | 0.00 | 60 | 1014.4 |
| 20260506104503 | 14 | 109 | 0.0 | 3.2 | 0.00 | 0.00 | 0.00 | 60 | 1014.4 |
| 20260506104413 | 15 | 109 | 0.0 | 3.2 | 0.00 | 0.00 | 0.00 | 59 | 1014.4 |
| 20260506103903 | 15 | 94 | 0.0 | 3.2 | 0.00 | 0.00 | 0.00 | 60 | 1014.4 |
| 20260506103603 | 15 | 134 | 0.0 | 3.2 | 0.00 | 0.00 | 0.00 | 61 | 1014.3 |
| 20260506103303 | 14 | 118 | 0.0 | 3.2 | 0.00 | 0.00 | 0.00 | 63 | 1014.2 |
| 20260506103003 | 14 | 117 | 0.0 | 3.2 | 0.00 | 0.00 | 0.00 | 60 | 1014.4 |
| 20260506102913 | 14 | 121 | 0.0 | 3.2 | 0.00 | 0.00 | 0.00 | 63 | 1014.4 |
| 20260506102403 | 14 | 100 | 0.0 | 3.2 | 0.00 | 0.00 | 0.00 | 64 | 1014.4 |
| 20260506102313 | 14 | 100 | 0.0 | 3.2 | 0.00 | 0.00 | 0.00 | 63 | 1014.4 |
| 20260506101803 | 14 | 328 | 0.0 | 1.6 | 0.00 | 0.00 | 0.00 | 64 | 1014.4 |
| 20260506101503 | 13 | 35 | 0.0 | 1.6 | 0.00 | 0.00 | 0.00 | 64 | 1014.4 |
| 20260506101412 | 13 | 70 | 0.0 | 4.8 | 0.00 | 0.00 | 0.00 | 64 | 1014.4 |
| 20260506101112 | 13 | 80 | 0.0 | 4.8 | 0.00 | 0.00 | 0.00 | 64 | 1014.4 |
| 20260506100603 | 13 | 89 | 0.0 | 4.8 | 0.00 | 0.00 | 0.00 | 67 | 1014.4 |
| 20260506100303 | 13 | 93 | 0.0 | 3.2 | 0.00 | 0.00 | 0.00 | 65 | 1014.4 |
| 20260506100003 | 13 | 111 | 0.0 | 3.2 | 0.00 | 0.00 | 0.00 | 65 | 1014.4 |
| 20260506095703 | 12 | 100 | 0.0 | 3.2 | 0.00 | 0.00 | 0.00 | 66 | 1014.4 |
| 20260506095404 | 12 | 98 | 0.0 | 3.2 | 0.00 | 0.00 | 0.00 | 64 | 1014.4 |
| 20260506095103 | 13 | 87 | 0.0 | 3.2 | 0.00 | 0.00 | 0.00 | 65 | 1014.3 |
| 20260506094803 | 13 | 74 | 0.0 | 3.2 | 0.00 | 0.00 | 0.00 | 63 | 1014.3 |
| 20260506094714 | 13 | 75 | 0.0 | 3.2 | 0.00 | 0.00 | 0.00 | 65 | 1014.3 |
| 20260506094203 | 12 | 64 | 0.0 | 3.2 | 0.00 | 0.00 | 0.00 | 65 | 1014.3 |
| 20260506093903 | 12 | 87 | 0.0 | 1.6 | 0.00 | 0.00 | 0.00 | 66 | 1014.3 |
| 20260506093814 | 12 | 87 | 0.0 | 1.6 | 0.00 | 0.00 | 0.00 | 66 | 1014.3 |
| 20260506093514 | 12 | 83 | 0.0 | 1.6 | 0.00 | 0.00 | 0.00 | 68 | 1014.3 |
| 20260506093003 | 11 | 83 | 0.0 | 1.6 | 0.00 | 0.00 | 0.00 | 68 | 1014.4 |
| 20260506092703 | 11 | 84 | 0.0 | 3.2 | 0.00 | 0.00 | 0.00 | 66 | 1014.4 |
| 20260506092404 | 11 | 84 | 0.0 | 3.2 | 0.00 | 0.00 | 0.00 | 69 | 1014.4 |
| 20260506092103 | 11 | 85 | 0.0 | 3.2 | 0.00 | 0.00 | 0.00 | 69 | 1014.5 |
| 20260506091803 | 11 | 87 | 0.0 | 3.2 | 0.00 | 0.00 | 0.00 | 71 | 1014.5 |
| 20260506091714 | 11 | 86 | 0.0 | 3.2 | 0.00 | 0.00 | 0.00 | 72 | 1014.5 |
| 20260506091203 | 11 | 93 | 0.0 | 3.2 | 0.00 | 0.00 | 0.00 | 71 | 1014.4 |
| 20260506090903 | 11 | 94 | 0.0 | 1.6 | 0.00 | 0.00 | 0.00 | 70 | 1014.5 |
| 20260506090603 | 11 | 84 | 0.0 | 1.6 | 0.00 | 0.00 | 0.00 | 72 | 1014.5 |
| 20260506090513 | 11 | 81 | 0.0 | 1.6 | 0.00 | 0.00 | 0.00 | 71 | 1014.5 |
| 20260506090003 | 10 | 78 | 0.0 | 1.6 | 0.00 | 0.00 | 0.00 | 72 | 1014.5 |
| 20260506085703 | 10 | 82 | 0.0 | 1.6 | 0.00 | 0.00 | 0.00 | 72 | 1014.5 |
| 20260506085403 | 10 | 82 | 0.0 | 1.6 | 0.00 | 0.00 | 0.00 | 73 | 1014.5 |
| 20260506085313 | 10 | 82 | 0.0 | 1.6 | 0.00 | 0.00 | 0.00 | 73 | 1014.4 |
| 20260506084803 | 10 | 84 | 0.0 | 3.2 | 0.00 | 0.00 | 0.00 | 74 | 1014.5 |
| 20260506084503 | 10 | 84 | 0.0 | 3.2 | 0.00 | 0.00 | 0.00 | 76 | 1014.4 |
| 20260506084204 | 10 | 99 | 0.0 | 3.2 | 0.00 | 0.00 | 0.00 | 76 | 1014.4 |
| 20260506083904 | 9 | 123 | 0.0 | 1.6 | 0.00 | 0.00 | 0.00 | 76 | 1014.4 |
| 20260506083604 | 9 | 121 | 0.0 | 1.6 | 0.00 | 0.00 | 0.00 | 74 | 1014.4 |
| 20260506083303 | 8 | 125 | 0.0 | 3.2 | 0.00 | 0.00 | 0.00 | 75 | 1014.4 |
| 20260506083003 | 8 | 126 | 0.0 | 3.2 | 0.00 | 0.00 | 0.00 | 74 | 1014.4 |
| 20260506082703 | 8 | 130 | 0.0 | 3.2 | 0.00 | 0.00 | 0.00 | 74 | 1014.5 |
| 20260506082612 | 8 | 130 | 0.0 | 3.2 | 0.00 | 0.00 | 0.00 | 74 | 1014.4 |
| 20260506082103 | 8 | 134 | 0.0 | 1.6 | 0.00 | 0.00 | 0.00 | 74 | 1014.4 |
| 20260506082012 | 8 | 134 | 0.0 | 1.6 | 0.00 | 0.00 | 0.00 | 74 | 1014.4 |
| 20260506081714 | 8 | 137 | 0.0 | 1.6 | 0.00 | 0.00 | 0.00 | 76 | 1014.4 |
| 20260506081203 | 8 | 134 | 0.0 | 1.6 | 0.00 | 0.00 | 0.00 | 78 | 1014.5 |
| 20260506081113 | 8 | 136 | 0.0 | 1.6 | 0.00 | 0.00 | 0.00 | 77 | 1014.5 |
| 20260506080603 | 8 | 139 | 0.0 | 1.6 | 0.00 | 0.00 | 0.00 | 78 | 1014.5 |
| 20260506080303 | 8 | 139 | 0.0 | 1.6 | 0.00 | 0.00 | 0.00 | 79 | 1014.4 |
| 20260506080213 | 8 | 139 | 0.0 | 1.6 | 0.00 | 0.00 | 0.00 | 79 | 1014.5 |
| 20260506073303 | 7 | 0 | 0.0 | 0.0 | 0.00 | 0.00 | 0.00 | 81 | 1014.3 |
| 20260506073003 | 7 | 0 | 0.0 | 0.0 | 0.00 | 0.00 | 0.00 | 80 | 1014.4 |
| 20260506072703 | 7 | 0 | 0.0 | 0.0 | 0.00 | 0.00 | 0.00 | 81 | 1014.3 |
| 20260506072403 | 7 | 0 | 0.0 | 0.0 | 0.00 | 0.00 | 0.00 | 81 | 1014.3 |
| 20260506072103 | 7 | 0 | 0.0 | 0.0 | 0.00 | 0.00 | 0.00 | 82 | 1014.3 |
| 20260506072014 | 7 | 0 | 0.0 | 0.0 | 0.00 | 0.00 | 0.00 | 82 | 1014.3 |
| 20260506071503 | 7 | 174 | 0.0 | 1.6 | 0.00 | 0.00 | 0.00 | 82 | 1014.3 |
| 20260506071203 | 7 | 174 | 0.0 | 1.6 | 0.00 | 0.00 | 0.00 | 82 | 1014.3 |
| 20260506070903 | 7 | 172 | 0.0 | 1.6 | 0.00 | 0.00 | 0.00 | 82 | 1014.2 |
| 20260506070603 | 7 | 172 | 0.0 | 1.6 | 0.00 | 0.00 | 0.00 | 82 | 1014.2 |
| 20260506070303 | 7 | 0 | 0.0 | 0.0 | 0.00 | 0.00 | 0.00 | 82 | 1014.1 |
| 20260506062403 | 7 | 30 | 0.0 | 1.6 | 0.00 | 0.00 | 0.00 | 84 | 1014.0 |
| 20260506062314 | 7 | 30 | 0.0 | 1.6 | 0.00 | 0.00 | 0.00 | 84 | 1014.0 |
| 20260506061804 | 7 | 30 | 0.0 | 1.6 | 0.00 | 0.00 | 0.00 | 84 | 1014.1 |
| 20260506061504 | 7 | 30 | 0.0 | 1.6 | 0.00 | 0.00 | 0.00 | 84 | 1013.9 |
| 20260506061413 | 7 | 0 | 0.0 | 0.0 | 0.00 | 0.00 | 0.00 | 84 | 1013.9 |
| 20260506060903 | 7 | 0 | 0.0 | 0.0 | 0.00 | 0.00 | 0.00 | 83 | 1013.9 |
| 20260506060812 | 7 | 0 | 0.0 | 0.0 | 0.00 | 0.00 | 0.00 | 83 | 1013.9 |
| 20260506060303 | 7 | 0 | 0.0 | 0.0 | 0.00 | 0.00 | 0.00 | 84 | 1013.9 |
| 20260506051203 | 7 | 0 | 0.0 | 0.0 | 0.00 | 0.00 | 0.00 | 81 | 1013.7 |
| 20260506050904 | 7 | 0 | 0.0 | 0.0 | 0.00 | 0.00 | 0.00 | 81 | 1013.6 |
| 20260506050603 | 7 | 0 | 0.0 | 0.0 | 0.00 | 0.00 | 0.00 | 80 | 1013.7 |
| 20260506050303 | 7 | 0 | 0.0 | 0.0 | 0.00 | 0.00 | 0.00 | 80 | 1013.6 |
| 20260506045103 | 7 | 59 | 0.0 | 1.6 | 0.00 | 0.00 | 0.00 | 80 | 1013.6 |
| 20260506044803 | 7 | 45 | 0.0 | 1.6 | 0.00 | 0.00 | 0.00 | 80 | 1013.6 |
| 20260506044503 | 7 | 26 | 0.0 | 1.6 | 0.00 | 0.00 | 0.00 | 80 | 1013.5 |
| 20260506044203 | 7 | 10 | 0.0 | 1.6 | 0.00 | 0.00 | 0.00 | 81 | 1013.5 |
| 20260506043903 | 7 | 45 | 0.0 | 1.6 | 0.00 | 0.00 | 0.00 | 81 | 1013.5 |
| 20260506043603 | 7 | 46 | 0.0 | 1.6 | 0.00 | 0.00 | 0.00 | 81 | 1013.6 |
| 20260506043303 | 7 | 46 | 0.0 | 1.6 | 0.00 | 0.00 | 0.00 | 80 | 1013.6 |
| 20260506043213 | 7 | 46 | 0.0 | 1.6 | 0.00 | 0.00 | 0.00 | 81 | 1013.6 |
| 20260506042705 | 7 | 46 | 0.0 | 1.6 | 0.00 | 0.00 | 0.00 | 81 | 1013.6 |
| 20260506042403 | 7 | 50 | 0.0 | 4.8 | 0.00 | 0.00 | 0.00 | 80 | 1013.5 |
| 20260506042103 | 7 | 53 | 0.0 | 4.8 | 0.00 | 0.00 | 0.00 | 80 | 1013.5 |
| 20260506041803 | 7 | 55 | 0.0 | 4.8 | 0.00 | 0.00 | 0.00 | 80 | 1013.5 |
| 20260506041504 | 7 | 84 | 0.0 | 1.6 | 0.00 | 0.00 | 0.00 | 80 | 1013.5 |
| 20260506041203 | 7 | 84 | 0.0 | 1.6 | 0.00 | 0.00 | 0.00 | 81 | 1013.6 |
| 20260506040903 | 7 | 91 | 0.0 | 1.6 | 0.00 | 0.00 | 0.00 | 81 | 1013.6 |
| 20260506040603 | 7 | 99 | 0.0 | 1.6 | 0.00 | 0.00 | 0.00 | 80 | 1013.5 |
| 20260506040303 | 7 | 96 | 0.0 | 1.6 | 0.00 | 0.00 | 0.00 | 80 | 1013.6 |
| 20260506040003 | 7 | 87 | 0.0 | 1.6 | 0.00 | 0.00 | 0.00 | 80 | 1013.6 |
| 20260506035704 | 7 | 79 | 0.0 | 1.6 | 0.00 | 0.00 | 0.00 | 80 | 1013.6 |
| 20260506035613 | 7 | 63 | 0.0 | 3.2 | 0.00 | 0.00 | 0.00 | 80 | 1013.6 |
| 20260506035103 | 7 | 358 | 0.0 | 4.8 | 0.00 | 0.00 | 0.00 | 82 | 1013.6 |
| 20260506034803 | 7 | 342 | 0.0 | 4.8 | 0.00 | 0.00 | 0.00 | 83 | 1013.7 |
| 20260506034503 | 7 | 346 | 0.0 | 1.6 | 0.00 | 0.00 | 0.00 | 83 | 1013.6 |
| 20260506034203 | 7 | 345 | 0.0 | 1.6 | 0.00 | 0.00 | 0.00 | 83 | 1013.6 |
| 20260506034114 | 7 | 345 | 0.0 | 1.6 | 0.00 | 0.00 | 0.00 | 83 | 1013.6 |
| 20260506033813 | 7 | 345 | 0.0 | 1.6 | 0.00 | 0.00 | 0.00 | 82 | 1013.6 |
| 20260506033303 | 7 | 55 | 0.0 | 4.8 | 0.00 | 0.00 | 0.00 | 83 | 1013.7 |
| 20260506033213 | 7 | 55 | 0.0 | 4.8 | 0.00 | 0.00 | 0.00 | 83 | 1013.6 |
| 20260506032703 | 8 | 36 | 0.0 | 4.8 | 0.00 | 0.00 | 0.00 | 83 | 1013.6 |
| 20260506032403 | 8 | 16 | 0.0 | 3.2 | 0.00 | 0.00 | 0.00 | 83 | 1013.6 |
| 20260506032104 | 8 | 312 | 0.0 | 3.2 | 0.00 | 0.00 | 0.00 | 83 | 1013.7 |
| 20260506032012 | 8 | 312 | 0.0 | 3.2 | 0.00 | 0.00 | 0.00 | 83 | 1013.7 |
| 20260506031503 | 8 | 110 | 0.0 | 1.6 | 0.00 | 0.00 | 0.00 | 83 | 1013.6 |
| 20260506031203 | 8 | 110 | 0.0 | 1.6 | 0.00 | 0.00 | 0.00 | 83 | 1013.7 |
| 20260506030903 | 8 | 110 | 0.0 | 1.6 | 0.00 | 0.00 | 0.00 | 83 | 1013.8 |
| 20260506030603 | 8 | 110 | 0.0 | 1.6 | 0.00 | 0.00 | 0.00 | 82 | 1013.7 |
| 20260506030303 | 8 | 109 | 0.0 | 1.6 | 0.00 | 0.00 | 0.00 | 82 | 1013.7 |
| 20260506030005 | 8 | 108 | 0.0 | 3.2 | 0.00 | 0.00 | 0.00 | 83 | 1013.8 |
| 20260506025703 | 8 | 118 | 0.0 | 3.2 | 0.00 | 0.00 | 0.00 | 83 | 1013.7 |
| 20260506025403 | 8 | 118 | 0.0 | 3.2 | 0.00 | 0.00 | 0.00 | 83 | 1013.7 |
| 20260506025103 | 8 | 174 | 0.0 | 1.6 | 0.00 | 0.00 | 0.00 | 83 | 1013.7 |
| 20260506024803 | 8 | 140 | 0.0 | 1.6 | 0.00 | 0.00 | 0.00 | 83 | 1013.7 |
| 20260506024503 | 8 | 146 | 0.0 | 1.6 | 0.00 | 0.00 | 0.00 | 83 | 1013.6 |
| 20260506024203 | 8 | 146 | 0.0 | 1.6 | 0.00 | 0.00 | 0.00 | 83 | 1013.7 |
| 20260506024114 | 8 | 146 | 0.0 | 1.6 | 0.00 | 0.00 | 0.00 | 83 | 1013.7 |
| 20260506023603 | 8 | 136 | 0.0 | 1.6 | 0.00 | 0.00 | 0.00 | 83 | 1013.6 |
| 20260506023303 | 8 | 142 | 0.0 | 1.6 | 0.00 | 0.00 | 0.00 | 83 | 1013.6 |
| 20260506023213 | 8 | 137 | 0.0 | 1.6 | 0.00 | 0.00 | 0.00 | 83 | 1013.6 |
| 20260506022704 | 8 | 98 | 0.0 | 3.2 | 0.00 | 0.00 | 0.00 | 83 | 1013.6 |
| 20260506022612 | 8 | 98 | 0.0 | 3.2 | 0.00 | 0.00 | 0.00 | 83 | 1013.6 |
| 20260506022103 | 8 | 87 | 0.0 | 1.6 | 0.00 | 0.00 | 0.00 | 83 | 1013.6 |
| 20260506022014 | 8 | 87 | 0.0 | 1.6 | 0.00 | 0.00 | 0.00 | 83 | 1013.6 |
| 20260506021505 | 8 | 101 | 0.0 | 4.8 | 0.00 | 0.00 | 0.00 | 83 | 1013.6 |
| 20260506021203 | 8 | 102 | 0.0 | 4.8 | 0.00 | 0.00 | 0.00 | 83 | 1013.7 |
| 20260506021113 | 8 | 102 | 0.0 | 4.8 | 0.00 | 0.00 | 0.00 | 82 | 1013.7 |
| 20260506020603 | 8 | 108 | 0.0 | 1.6 | 0.00 | 0.00 | 0.00 | 82 | 1013.7 |
| 20260506020515 | 8 | 108 | 0.0 | 1.6 | 0.00 | 0.00 | 0.00 | 82 | 1013.7 |
| 20260506020003 | 8 | 97 | 0.0 | 1.6 | 0.00 | 0.00 | 0.00 | 82 | 1013.7 |
| 20260506015705 | 8 | 95 | 0.0 | 1.6 | 0.00 | 0.00 | 0.00 | 82 | 1013.6 |
| 20260506015614 | 8 | 95 | 0.0 | 1.6 | 0.00 | 0.00 | 0.00 | 82 | 1013.6 |
| 20260506015103 | 8 | 74 | 0.0 | 1.6 | 0.00 | 0.00 | 0.00 | 82 | 1013.5 |
| 20260506014803 | 8 | 75 | 0.0 | 1.6 | 0.00 | 0.00 | 0.00 | 82 | 1013.5 |
| 20260506014503 | 8 | 71 | 0.0 | 3.2 | 0.00 | 0.00 | 0.00 | 81 | 1013.5 |
| 20260506014413 | 8 | 70 | 0.0 | 3.2 | 0.00 | 0.00 | 0.00 | 81 | 1013.5 |
| 20260506013903 | 8 | 61 | 0.0 | 3.2 | 0.00 | 0.00 | 0.00 | 81 | 1013.6 |
| 20260506013603 | 8 | 51 | 0.0 | 1.6 | 0.00 | 0.00 | 0.00 | 82 | 1013.6 |
| 20260506013512 | 8 | 49 | 0.0 | 1.6 | 0.00 | 0.00 | 0.00 | 83 | 1013.6 |
| 20260506013003 | 8 | 67 | 0.0 | 3.2 | 0.00 | 0.00 | 0.00 | 83 | 1013.6 |
| 20260506012912 | 8 | 67 | 0.0 | 3.2 | 0.00 | 0.00 | 0.00 | 83 | 1013.6 |
| 20260506012403 | 8 | 70 | 0.0 | 3.2 | 0.00 | 0.00 | 0.00 | 82 | 1013.6 |
| 20260506012103 | 9 | 81 | 0.0 | 1.6 | 0.00 | 0.00 | 0.00 | 82 | 1013.7 |
| 20260506011803 | 9 | 76 | 0.0 | 3.2 | 0.00 | 0.00 | 0.00 | 82 | 1013.6 |
| 20260506011503 | 9 | 74 | 0.0 | 3.2 | 0.00 | 0.00 | 0.00 | 82 | 1013.6 |
| 20260506011203 | 9 | 74 | 0.0 | 3.2 | 0.00 | 0.00 | 0.00 | 82 | 1013.7 |
| 20260506010903 | 9 | 66 | 0.0 | 3.2 | 0.00 | 0.00 | 0.00 | 82 | 1013.7 |
| 20260506010603 | 9 | 67 | 0.0 | 3.2 | 0.00 | 0.00 | 0.00 | 82 | 1013.7 |
| 20260506010303 | 9 | 66 | 0.0 | 3.2 | 0.00 | 0.00 | 0.00 | 82 | 1013.7 |
| 20260506010003 | 9 | 67 | 0.0 | 1.6 | 0.00 | 0.00 | 0.00 | 83 | 1013.7 |
| 20260506005703 | 9 | 61 | 0.0 | 3.2 | 0.00 | 0.00 | 0.00 | 82 | 1013.7 |
| 20260506005404 | 9 | 64 | 0.0 | 3.2 | 0.00 | 0.00 | 0.00 | 83 | 1013.6 |
| 20260506005103 | 9 | 76 | 0.0 | 3.2 | 0.00 | 0.00 | 0.00 | 84 | 1013.7 |
| 20260506004803 | 9 | 119 | 0.0 | 1.6 | 0.00 | 0.00 | 0.00 | 84 | 1013.7 |
| 20260506004503 | 9 | 123 | 0.0 | 1.6 | 0.00 | 0.00 | 0.00 | 84 | 1013.6 |
| 20260506004203 | 9 | 115 | 0.0 | 1.6 | 0.00 | 0.00 | 0.00 | 84 | 1013.6 |
| 20260506003903 | 9 | 67 | 0.0 | 1.6 | 0.00 | 0.00 | 0.00 | 84 | 1013.7 |
| 20260506003603 | 9 | 67 | 0.0 | 1.6 | 0.00 | 0.00 | 0.00 | 84 | 1013.7 |
| 20260506003303 | 9 | 42 | 0.0 | 1.6 | 0.00 | 0.00 | 0.00 | 84 | 1013.7 |
| 20260506003003 | 9 | 350 | 0.0 | 3.2 | 0.00 | 0.00 | 0.00 | 84 | 1013.6 |
| 20260506002703 | 9 | 355 | 0.0 | 3.2 | 0.00 | 0.00 | 0.00 | 84 | 1013.7 |
| 20260506002614 | 9 | 359 | 0.0 | 3.2 | 0.00 | 0.00 | 0.00 | 83 | 1013.8 |
| 20260506002103 | 9 | 10 | 0.0 | 4.8 | 0.00 | 0.00 | 0.00 | 83 | 1013.8 |
| 20260506001803 | 9 | 15 | 0.0 | 4.8 | 0.00 | 0.00 | 0.00 | 83 | 1013.8 |
| 20260506001503 | 9 | 25 | 0.0 | 4.8 | 0.00 | 0.00 | 0.00 | 82 | 1013.8 |
| 20260506001203 | 9 | 70 | 0.0 | 3.2 | 0.00 | 0.00 | 0.00 | 82 | 1013.7 |
| 20260506000903 | 9 | 56 | 0.0 | 3.2 | 0.00 | 0.00 | 0.00 | 82 | 1013.8 |
| 20260506000604 | 9 | 22 | 0.0 | 3.2 | 0.00 | 0.00 | 0.00 | 82 | 1013.8 |
| 20260506000303 | 9 | 346 | 0.0 | 3.2 | 0.00 | 0.00 | 0.00 | 83 | 1013.7 |
| 20260506000003 | 9 | 346 | 0.0 | 3.2 | 0.00 | 0.00 | 0.00 | 82 | 1013.7 |
| 20260505235703 | 9 | 338 | 0.0 | 3.2 | 0.00 | 0.00 | 0.00 | 82 | 1013.6 |
| 20260505235403 | 9 | 107 | 0.0 | 3.2 | 0.00 | 0.00 | 0.00 | 82 | 1013.7 |
| 20260505235103 | 9 | 0 | 0.0 | 0.0 | 0.00 | 0.00 | 0.00 | 82 | 1013.7 |
| 20260505235013 | 9 | 0 | 0.0 | 0.0 | 0.00 | 0.00 | 0.00 | 82 | 1013.7 |
| 20260505234503 | 9 | 0 | 0.0 | 0.0 | 0.00 | 0.00 | 0.00 | 82 | 1013.7 |
| 20260505234203 | 9 | 0 | 0.0 | 0.0 | 0.00 | 0.00 | 0.00 | 82 | 1013.7 |
| 20260505234112 | 9 | 0 | 0.0 | 0.0 | 0.00 | 0.00 | 0.00 | 82 | 1013.7 |
| 20260505233603 | 9 | 0 | 0.0 | 0.0 | 0.00 | 0.00 | 0.00 | 81 | 1013.7 |
| 20260505233303 | 9 | 11 | 0.0 | 1.6 | 0.00 | 0.00 | 0.00 | 81 | 1013.6 |
| 20260505233214 | 9 | 11 | 0.0 | 1.6 | 0.00 | 0.00 | 0.00 | 82 | 1013.8 |
| 20260505232705 | 9 | 11 | 0.0 | 1.6 | 0.00 | 0.00 | 0.00 | 82 | 1013.7 |
| 20260505232403 | 9 | 2 | 0.0 | 1.6 | 0.00 | 0.00 | 0.00 | 82 | 1013.9 |
| 20260505232103 | 9 | 360 | 0.0 | 1.6 | 0.00 | 0.00 | 0.00 | 82 | 1013.8 |
| 20260505231803 | 9 | 360 | 0.0 | 1.6 | 0.00 | 0.00 | 0.00 | 82 | 1013.7 |
| 20260505231503 | 9 | 0 | 0.0 | 0.0 | 0.00 | 0.00 | 0.00 | 82 | 1013.8 |
| 20260505231203 | 9 | 0 | 0.0 | 0.0 | 0.00 | 0.00 | 0.00 | 82 | 1013.8 |
| 20260505230903 | 9 | 0 | 0.0 | 0.0 | 0.00 | 0.00 | 0.00 | 82 | 1013.8 |
| 20260505230814 | 9 | 0 | 0.0 | 0.0 | 0.00 | 0.00 | 0.00 | 82 | 1013.8 |
| 20260505230303 | 9 | 0 | 0.0 | 0.0 | 0.00 | 0.00 | 0.00 | 82 | 1013.8 |
| 20260505230004 | 9 | 0 | 0.0 | 0.0 | 0.00 | 0.00 | 0.00 | 82 | 1013.8 |
| 20260505225915 | 9 | 0 | 0.0 | 0.0 | 0.00 | 0.00 | 0.00 | 82 | 1013.8 |
| 20260505225403 | 9 | 0 | 0.0 | 0.0 | 0.00 | 0.00 | 0.00 | 82 | 1013.9 |
| 20260505225103 | 9 | 0 | 0.0 | 0.0 | 0.00 | 0.00 | 0.00 | 82 | 1013.8 |
| 20260505224804 | 9 | 0 | 0.0 | 0.0 | 0.00 | 0.00 | 0.00 | 83 | 1013.8 |
| 20260505224503 | 9 | 0 | 0.0 | 0.0 | 0.00 | 0.00 | 0.00 | 82 | 1013.8 |
| 20260505224203 | 9 | 0 | 0.0 | 0.0 | 0.00 | 0.00 | 0.00 | 83 | 1013.8 |
| 20260505224114 | 9 | 0 | 0.0 | 0.0 | 0.00 | 0.00 | 0.00 | 83 | 1013.8 |
| 20260505223603 | 9 | 0 | 0.0 | 0.0 | 0.00 | 0.00 | 0.00 | 83 | 1013.8 |
| 20260505223303 | 9 | 0 | 0.0 | 0.0 | 0.00 | 0.00 | 0.00 | 82 | 1013.8 |
| 20260505223215 | 9 | 0 | 0.0 | 0.0 | 0.00 | 0.00 | 0.00 | 82 | 1013.8 |
| 20260505222703 | 9 | 0 | 0.0 | 0.0 | 0.00 | 0.00 | 0.00 | 82 | 1013.8 |
| 20260505222403 | 9 | 0 | 0.0 | 0.0 | 0.00 | 0.00 | 0.00 | 83 | 1013.8 |
| 20260505222105 | 9 | 0 | 0.0 | 0.0 | 0.00 | 0.00 | 0.00 | 82 | 1013.8 |
| 20260505221803 | 9 | 0 | 0.0 | 0.0 | 0.00 | 0.00 | 0.00 | 82 | 1013.8 |
| 20260505221503 | 9 | 0 | 0.0 | 0.0 | 0.00 | 0.00 | 0.00 | 82 | 1013.8 |
| 20260505221204 | 9 | 193 | 0.0 | 3.2 | 0.00 | 0.00 | 0.00 | 82 | 1013.7 |
| 20260505220903 | 9 | 181 | 0.0 | 3.2 | 0.00 | 0.00 | 0.00 | 82 | 1013.8 |
| 20260505220604 | 9 | 181 | 0.0 | 3.2 | 0.00 | 0.00 | 0.00 | 82 | 1013.7 |
| 20260505220303 | 9 | 141 | 0.0 | 1.6 | 0.00 | 0.00 | 0.00 | 82 | 1013.7 |
| 20260505220003 | 9 | 0 | 0.0 | 0.0 | 0.00 | 0.00 | 0.00 | 82 | 1013.6 |
| 20260505215703 | 9 | 0 | 0.0 | 0.0 | 0.00 | 0.00 | 0.00 | 82 | 1013.7 |
| 20260505215403 | 9 | 0 | 0.0 | 0.0 | 0.00 | 0.00 | 0.00 | 82 | 1013.7 |
| 20260505215312 | 10 | 0 | 0.0 | 0.0 | 0.00 | 0.00 | 0.00 | 82 | 1013.7 |
| 20260505214803 | 10 | 0 | 0.0 | 0.0 | 0.00 | 0.00 | 0.00 | 82 | 1013.6 |
| 20260505214503 | 10 | 0 | 0.0 | 0.0 | 0.00 | 0.00 | 0.00 | 82 | 1013.7 |
| 20260505214203 | 10 | 0 | 0.0 | 0.0 | 0.00 | 0.00 | 0.00 | 81 | 1013.7 |
| 20260505214113 | 10 | 0 | 0.0 | 0.0 | 0.00 | 0.00 | 0.00 | 81 | 1013.7 |
| 20260505213603 | 10 | 0 | 0.0 | 0.0 | 0.00 | 0.00 | 0.00 | 81 | 1013.7 |
| 20260505213303 | 10 | 0 | 0.0 | 0.0 | 0.00 | 0.00 | 0.00 | 81 | 1013.7 |
| 20260505213215 | 10 | 0 | 0.0 | 0.0 | 0.00 | 0.00 | 0.00 | 81 | 1013.7 |
| 20260505212703 | 10 | 0 | 0.0 | 0.0 | 0.00 | 0.00 | 0.00 | 81 | 1013.6 |
| 20260505212403 | 10 | 0 | 0.0 | 0.0 | 0.00 | 0.00 | 0.00 | 81 | 1013.7 |
| 20260505212103 | 10 | 0 | 0.0 | 0.0 | 0.00 | 0.00 | 0.00 | 81 | 1013.6 |
| 20260505211803 | 10 | 0 | 0.0 | 0.0 | 0.00 | 0.00 | 0.00 | 81 | 1013.7 |
| 20260505211503 | 10 | 0 | 0.0 | 0.0 | 0.00 | 0.00 | 0.00 | 81 | 1013.6 |
| 20260505211203 | 10 | 0 | 0.0 | 0.0 | 0.00 | 0.00 | 0.00 | 81 | 1013.7 |
| 20260505211113 | 10 | 0 | 0.0 | 0.0 | 0.00 | 0.00 | 0.00 | 81 | 1013.7 |
| 20260505210813 | 10 | 0 | 0.0 | 0.0 | 0.00 | 0.00 | 0.00 | 81 | 1013.7 |
| 20260505210303 | 10 | 0 | 0.0 | 0.0 | 0.00 | 0.00 | 0.00 | 81 | 1013.7 |
| 20260505210003 | 10 | 0 | 0.0 | 0.0 | 0.00 | 0.00 | 0.00 | 81 | 1013.6 |
| 20260505205703 | 10 | 0 | 0.0 | 0.0 | 0.00 | 0.00 | 0.00 | 81 | 1013.7 |
| 20260505205403 | 10 | 0 | 0.0 | 0.0 | 0.00 | 0.00 | 0.00 | 80 | 1013.6 |
| 20260505205104 | 10 | 0 | 0.0 | 0.0 | 0.00 | 0.00 | 0.00 | 80 | 1013.7 |
| 20260505204803 | 10 | 0 | 0.0 | 0.0 | 0.00 | 0.00 | 0.00 | 80 | 1013.7 |
| 20260505204503 | 10 | 0 | 0.0 | 0.0 | 0.00 | 0.00 | 0.00 | 80 | 1013.7 |
| 20260505204203 | 10 | 0 | 0.0 | 0.0 | 0.00 | 0.00 | 0.00 | 80 | 1013.7 |
| 20260505203903 | 10 | 0 | 0.0 | 0.0 | 0.00 | 0.00 | 0.00 | 80 | 1013.7 |
| 20260505203603 | 10 | 0 | 0.0 | 0.0 | 0.00 | 0.00 | 0.00 | 80 | 1013.7 |
| 20260505203303 | 10 | 109 | 0.0 | 3.2 | 0.00 | 0.00 | 0.00 | 80 | 1013.7 |
| 20260505203004 | 10 | 105 | 0.0 | 3.2 | 0.00 | 0.00 | 0.00 | 79 | 1013.7 |
| 20260505202703 | 10 | 105 | 0.0 | 3.2 | 0.00 | 0.00 | 0.00 | 80 | 1013.7 |
| 20260505202614 | 10 | 105 | 0.0 | 3.2 | 0.00 | 0.00 | 0.00 | 79 | 1013.7 |
| 20260505202103 | 10 | 0 | 0.0 | 0.0 | 0.00 | 0.00 | 0.00 | 80 | 1013.7 |
| 20260505201803 | 10 | 125 | 0.0 | 1.6 | 0.00 | 0.00 | 0.00 | 79 | 1013.6 |
| 20260505201503 | 10 | 114 | 0.0 | 1.6 | 0.00 | 0.00 | 0.00 | 79 | 1013.6 |
| 20260505201203 | 10 | 114 | 0.0 | 1.6 | 0.00 | 0.00 | 0.00 | 79 | 1013.6 |
| 20260505200903 | 10 | 100 | 0.0 | 1.6 | 0.00 | 0.00 | 0.00 | 79 | 1013.5 |
| 20260505200603 | 10 | 97 | 0.0 | 1.6 | 0.00 | 0.00 | 0.00 | 79 | 1013.5 |
| 20260505200303 | 10 | 91 | 0.0 | 1.6 | 0.00 | 0.00 | 0.00 | 79 | 1013.4 |
| 20260505200003 | 10 | 87 | 0.0 | 1.6 | 0.00 | 0.00 | 0.00 | 79 | 1013.5 |
| 20260505195704 | 10 | 86 | 0.0 | 1.6 | 0.00 | 0.00 | 0.00 | 78 | 1013.4 |
| 20260505195403 | 10 | 65 | 0.0 | 1.6 | 0.00 | 0.00 | 0.00 | 78 | 1013.4 |
| 20260505195103 | 10 | 7 | 0.0 | 1.6 | 0.00 | 0.00 | 0.00 | 78 | 1013.2 |
| 20260505195016 | 10 | 7 | 0.0 | 1.6 | 0.00 | 0.00 | 0.00 | 78 | 1013.3 |
| 20260505194503 | 10 | 259 | 0.0 | 1.6 | 0.00 | 0.00 | 0.00 | 78 | 1013.3 |
| 20260505194413 | 10 | 259 | 0.0 | 1.6 | 0.00 | 0.00 | 0.00 | 78 | 1013.3 |
| 20260505193904 | 10 | 0 | 0.0 | 1.6 | 0.00 | 0.00 | 0.00 | 78 | 1013.2 |
| 20260505193603 | 10 | 0 | 0.0 | 0.0 | 0.00 | 0.00 | 0.00 | 78 | 1013.1 |
| 20260505193303 | 10 | 244 | 0.0 | 1.6 | 0.00 | 0.00 | 0.00 | 77 | 1013.2 |
| 20260505193003 | 10 | 244 | 0.0 | 1.6 | 0.00 | 0.00 | 0.00 | 77 | 1013.1 |
| 20260505192703 | 10 | 258 | 0.0 | 1.6 | 0.00 | 0.00 | 0.00 | 77 | 1013.2 |
| 20260505192403 | 10 | 269 | 0.0 | 1.6 | 0.00 | 0.00 | 0.00 | 77 | 1013.1 |
| 20260505192313 | 10 | 269 | 0.0 | 1.6 | 0.00 | 0.00 | 0.00 | 77 | 1013.1 |
| 20260505191803 | 11 | 269 | 0.0 | 1.6 | 0.00 | 0.00 | 0.00 | 76 | 1013.1 |
| 20260505191503 | 11 | 0 | 0.0 | 0.0 | 0.00 | 0.00 | 0.00 | 76 | 1013.1 |
| 20260505191204 | 11 | 0 | 0.0 | 0.0 | 0.00 | 0.00 | 0.00 | 76 | 1013.1 |
| 20260505190903 | 11 | 269 | 0.0 | 1.6 | 0.00 | 0.00 | 0.00 | 75 | 1013.1 |
| 20260505190603 | 11 | 269 | 0.0 | 1.6 | 0.00 | 0.00 | 0.00 | 75 | 1013.1 |
| 20260505190303 | 11 | 269 | 0.0 | 1.6 | 0.00 | 0.00 | 0.00 | 76 | 1013.0 |
| 20260505190003 | 11 | 299 | 0.0 | 1.6 | 0.00 | 0.00 | 0.00 | 76 | 1013.0 |
| 20260505185703 | 11 | 299 | 0.0 | 1.6 | 0.00 | 0.00 | 0.00 | 76 | 1013.0 |
| 20260505185403 | 11 | 99 | 0.0 | 3.2 | 0.00 | 0.00 | 0.00 | 76 | 1012.9 |
| 20260505185103 | 11 | 127 | 0.0 | 3.2 | 0.00 | 0.00 | 0.00 | 75 | 1013.0 |
| 20260505184803 | 11 | 125 | 0.0 | 3.2 | 0.00 | 0.00 | 0.00 | 76 | 1013.0 |
| 20260505184503 | 11 | 122 | 0.0 | 3.2 | 0.00 | 0.00 | 0.00 | 76 | 1013.0 |
| 20260505184203 | 11 | 217 | 0.0 | 1.6 | 0.00 | 0.00 | 0.00 | 76 | 1013.0 |
| 20260505183904 | 11 | 0 | 0.0 | 0.0 | 0.00 | 0.00 | 0.00 | 75 | 1013.0 |
| 20260505183603 | 11 | 0 | 0.0 | 0.0 | 0.00 | 0.00 | 0.00 | 75 | 1013.0 |
| 20260505183514 | 11 | 0 | 0.0 | 0.0 | 0.00 | 0.00 | 0.00 | 75 | 1013.1 |
| 20260505183003 | 11 | 0 | 0.0 | 0.0 | 0.00 | 0.00 | 0.00 | 77 | 1013.0 |
| 20260505182913 | 12 | 0 | 0.0 | 0.0 | 0.00 | 0.00 | 0.00 | 77 | 1012.9 |
| 20260505182403 | 12 | 0 | 0.0 | 0.0 | 0.00 | 0.00 | 0.00 | 76 | 1012.9 |
| 20260505182103 | 12 | 121 | 0.0 | 1.6 | 0.00 | 0.00 | 0.00 | 75 | 1013.0 |
| 20260505181803 | 12 | 38 | 0.0 | 1.6 | 0.00 | 0.00 | 0.00 | 75 | 1013.0 |
| 20260505181503 | 12 | 50 | 0.0 | 1.6 | 0.00 | 0.00 | 0.00 | 75 | 1012.9 |
| 20260505181412 | 12 | 50 | 0.0 | 1.6 | 0.00 | 0.00 | 0.00 | 74 | 1012.9 |
| 20260505180903 | 12 | 57 | 0.0 | 1.6 | 0.00 | 0.00 | 0.00 | 72 | 1013.0 |
| 20260505180814 | 12 | 65 | 0.0 | 1.6 | 0.00 | 0.00 | 0.00 | 72 | 1013.1 |
| 20260505180514 | 12 | 78 | 0.0 | 1.6 | 0.00 | 0.00 | 0.00 | 74 | 1013.0 |
| 20260505180003 | 12 | 77 | 0.0 | 1.6 | 0.00 | 0.00 | 0.00 | 73 | 1013.0 |
| 20260505175703 | 12 | 74 | 0.0 | 1.6 | 0.00 | 0.00 | 0.00 | 75 | 1013.0 |
| 20260505175403 | 12 | 70 | 0.0 | 1.6 | 0.00 | 0.00 | 0.00 | 73 | 1013.0 |
| 20260505175103 | 12 | 83 | 0.0 | 3.2 | 0.00 | 0.00 | 0.00 | 73 | 1013.1 |
| 20260505174803 | 12 | 85 | 0.0 | 3.2 | 0.00 | 0.00 | 0.00 | 73 | 1013.0 |
| 20260505174503 | 12 | 87 | 0.0 | 3.2 | 0.00 | 0.00 | 0.00 | 71 | 1013.0 |
| 20260505174412 | 13 | 89 | 0.0 | 3.2 | 0.00 | 0.00 | 0.00 | 72 | 1013.0 |
| 20260505173903 | 13 | 226 | 0.0 | 1.6 | 0.00 | 0.00 | 0.00 | 72 | 1013.1 |
| 20260505173814 | 13 | 226 | 0.0 | 1.6 | 0.00 | 0.00 | 0.00 | 71 | 1013.1 |
| 20260505173514 | 13 | 226 | 0.0 | 1.6 | 0.00 | 0.00 | 0.00 | 71 | 1013.1 |
| 20260505173003 | 13 | 0 | 0.0 | 0.0 | 0.00 | 0.00 | 0.00 | 70 | 1013.0 |
| 20260505172703 | 13 | 75 | 0.0 | 1.6 | 0.00 | 0.00 | 0.00 | 70 | 1013.0 |
| 20260505172403 | 13 | 75 | 0.0 | 1.6 | 0.00 | 0.00 | 0.00 | 72 | 1013.1 |
| 20260505172103 | 13 | 75 | 0.0 | 1.6 | 0.00 | 0.00 | 0.00 | 74 | 1013.1 |
| 20260505172012 | 13 | 75 | 0.0 | 1.6 | 0.00 | 0.00 | 0.00 | 74 | 1013.1 |
| 20260505171503 | 13 | 0 | 0.0 | 0.0 | 0.00 | 0.00 | 0.00 | 73 | 1013.2 |
| 20260505171203 | 13 | 0 | 0.0 | 0.0 | 0.00 | 0.00 | 0.00 | 73 | 1013.1 |
| 20260505170903 | 13 | 0 | 0.0 | 0.0 | 0.00 | 0.00 | 0.00 | 73 | 1013.2 |
| 20260505170603 | 13 | 0 | 0.0 | 0.0 | 0.00 | 0.00 | 0.00 | 73 | 1013.1 |
| 20260505170513 | 13 | 0 | 0.0 | 0.0 | 0.00 | 0.00 | 0.00 | 72 | 1013.1 |
| 20260505170003 | 13 | 194 | 0.0 | 1.6 | 0.00 | 0.00 | 0.00 | 72 | 1013.2 |
| 20260505165703 | 13 | 194 | 0.0 | 1.6 | 0.00 | 0.00 | 0.00 | 73 | 1013.1 |